Booneville, Arkansas, United States (72927)
Lat: 35.14N, Lon: 93.92W
Wx Zone: ARZ030
Local Info
Past Weather Observations for Thursday, May 19, 2016

NOTE: This archive is for the closest National Weather Service station to Booneville. Information may differ from the station used for current weather conditions.

Click here for Long-term Archive

Time Weather Temperature Dewpoint Humidity Pressure Winds Precip Visibility
23:53
Overcast
59°F / 15°C 57°F / 14°C 94% 29.98 in
(1015 mb)
E 10.4 mph
(E 17 kph)
- 8SM
23:11
Overcast
61°F / 16°C 57°F / 14°C 88% 30.01 in
(1016 mb)
E 10.4 mph
(E 17 kph)
- 8SM
22:53
Overcast
61°F / 16°C 57°F / 14°C 88% 30.01 in
(1016 mb)
E 9.2 mph
(E 15 kph)
- 8SM
21:53
Overcast
61°F / 16°C 57°F / 14°C 88% 30.01 in
(1016 mb)
ENE 4.6 mph
(ENE 7 kph)
0.00 in
(0.00 mm)
8SM
21:44
Mostly Cloudy
59°F / 15°C 57°F / 14°C 94% 30.01 in
(1016 mb)
ENE 4.6 mph
(ENE 7 kph)
0.00 in
(0.00 mm)
7SM
21:21
Mostly Cloudy
61°F / 16°C 57°F / 14°C 88% 30.01 in
(1016 mb)
E 8.1 mph
(E 13 kph)
0.00 in
(0.00 mm)
8SM
20:53
Mostly Cloudy
Light Rain
61°F / 16°C 57°F / 14°C 88% 30.01 in
(1016 mb)
ENE 8.1 mph
(ENE 13 kph)
0.00 in
(0.00 mm)
8SM
19:53
Overcast
Light Rain
61°F / 16°C 57°F / 14°C 88% 30.01 in
(1016 mb)
ENE 8.1 mph
(ENE 13 kph)
0.02 in
(0.51 mm)
7SM
18:53
Overcast
61°F / 16°C 57°F / 14°C 88% 30.01 in
(1016 mb)
E 6.9 mph
(E 11 kph)
0.00 in
(0.00 mm)
7SM
17:53
Overcast
Light Rain
63°F / 17°C 55°F / 13°C 77% 30.01 in
(1016 mb)
Calm 0.00 in
(0.00 mm)
10SM
16:53
Overcast
64°F / 18°C 55°F / 13°C 73% 30.01 in
(1016 mb)
Calm 0.01 in
(0.25 mm)
10SM
15:53
Overcast
Light Rain
64°F / 18°C 55°F / 13°C 73% 30.01 in
(1016 mb)
E 5.8 mph
(E 9 kph)
0.00 in
(0.00 mm)
10SM
14:53
Overcast
66°F / 19°C 52°F / 11°C 60% 30.04 in
(1017 mb)
ESE 9.2 mph
(ESE 15 kph)
- 10SM
13:53
Overcast
66°F / 19°C 52°F / 11°C 60% 30.04 in
(1017 mb)
E 10.4 mph
(E 17 kph)
- 10SM
12:53
Partly Cloudy
66°F / 19°C 52°F / 11°C 60% 30.06 in
(1018 mb)
ENE 8.1 mph
(ENE 13 kph)
- 10SM
12:00
Partly Cloudy
66°F / 19°C 52°F / 11°C 60% 30.09 in
(1019 mb)
E 8.1 mph
(E 13 kph)
- 10SM
11:53
Mostly Cloudy
64°F / 18°C 52°F / 11°C 64% 30.09 in
(1019 mb)
SE 8.1 mph
(SE 13 kph)
- 10SM
11:23
Mostly Cloudy
64°F / 18°C 52°F / 11°C 64% 30.09 in
(1019 mb)
E 6.9 mph
(E 11 kph)
- 10SM
10:53
Partly Cloudy
64°F / 18°C 52°F / 11°C 64% 30.09 in
(1019 mb)
SE 6.9 mph
(SE 11 kph)
- 10SM
09:53
Partly Cloudy
64°F / 18°C 52°F / 11°C 64% 30.12 in
(1020 mb)
E 10.4 mph
(E 17 kph)
- 10SM
08:53
Clear
64°F / 18°C 52°F / 11°C 64% 30.09 in
(1019 mb)
E 12.7 mph
(E 20 kph)
- 10SM
07:53
Clear
61°F / 16°C 54°F / 12°C 77% 30.12 in
(1020 mb)
E 10.4 mph
(E 17 kph)
- 10SM
06:53
Clear
55°F / 13°C 52°F / 11°C 88% 30.12 in
(1020 mb)
ENE 6.9 mph
(ENE 11 kph)
- 10SM
05:53
Clear
55°F / 13°C 52°F / 11°C 88% 30.12 in
(1020 mb)
NE 3.5 mph
(NE 6 kph)
- 10SM
04:53
Mostly Cloudy
54°F / 12°C 52°F / 11°C 94% 30.12 in
(1020 mb)
NNE 3.5 mph
(NNE 6 kph)
- 10SM
03:53
Clear
54°F / 12°C 52°F / 11°C 94% 30.09 in
(1019 mb)
ENE 4.6 mph
(ENE 7 kph)
- 10SM
02:53
Clear
54°F / 12°C 50°F / 10°C 88% 30.09 in
(1019 mb)
ENE 4.6 mph
(ENE 7 kph)
- 10SM
01:53
Clear
55°F / 13°C 52°F / 11°C 88% 30.09 in
(1019 mb)
NE 4.6 mph
(NE 7 kph)
- 10SM
00:53
Clear
55°F / 13°C 52°F / 11°C 88% 30.12 in
(1020 mb)
ENE 3.5 mph
(ENE 6 kph)
- 10SM
Time Weather Temperature Dewpoint Humidity Pressure Winds Precip Visibility


Weather for websites

WeatherForYou.com, LLC is not responsible for any damages or problems caused by this service. Current weather conditions are obtained from the closest station including government and personal stations which may have varying degrees of accuracy. Weather forecasts are derived from the NOAA NDFD. Like all things, this site belongs to Jesus Christ... He just trusts us to maintain it. If you have any questions or comments email webmaster@weatherforyou.com

Copyright © 2016, WeatherForYou.com LLC. All rights reserved.